Location: Unspecified
(37.0902°N, 0.0000°E)
Time: 07:38:28
(UTC+00:00)

Transit 2A - All Passes

Search period start: 04 April 2026 00:00
Search period end: 14 April 2026 00:00
Orbit: 591 x 953 km, 66.7° (Epoch: 29 March)

Date Brightness Start Highest point End Pass type
(mag) Time Alt. Az. Time Alt. Az. Time Alt. Az.
4 Apr - 01:20:15 10° SSW 01:26:32 84° ESE 01:32:48 10° NNE visible
4 Apr - 03:06:03 10° W 03:10:21 19° NW 03:14:34 10° N visible
4 Apr - 10:09:58 10° NNW 10:15:02 40° NE 10:19:36 10° SE daylight
4 Apr - 11:53:48 10° WNW 11:57:40 22° WSW 12:01:16 10° SSW daylight
5 Apr - 00:44:04 10° S 00:50:11 57° ESE 00:56:18 10° NE visible
5 Apr - 02:28:27 10° WSW 02:33:37 26° NW 02:38:43 10° N visible
5 Apr - 09:33:53 10° N 09:38:26 27° NE 09:42:35 10° ESE daylight
5 Apr - 11:16:48 10° NW 11:21:31 35° WSW 11:25:48 10° S daylight
6 Apr - 00:08:12 10° S 00:13:54 38° ESE 00:19:37 10° NE visible
6 Apr - 01:51:14 10° WSW 01:56:59 36° NW 02:02:41 10° NNE visible
6 Apr - 08:58:01 10° N 09:01:43 18° NE 09:05:11 10° E daylight
6 Apr - 10:40:06 10° NW 10:45:16 58° WSW 10:49:54 10° SSE daylight
6 Apr - 23:32:43 10° SSE 23:37:42 25° ESE 23:42:40 10° NE visible
7 Apr - 01:14:18 10° SW 01:20:27 52° WNW 01:26:30 10° NNE visible
7 Apr - 03:03:51 10° NW 03:04:54 10° NW 03:05:56 10° NNW visible
7 Apr - 08:22:35 10° NNE 08:24:55 13° NE 08:27:10 10° ENE daylight
7 Apr - 10:03:37 10° NNW 10:08:56 86° ENE 10:13:40 10° SSE daylight
7 Apr - 22:57:50 10° SE 23:01:32 16° ESE 23:05:14 10° ENE visible
8 Apr - 00:37:40 10° SSW 00:43:58 76° WNW 00:50:13 10° NNE visible
8 Apr - 02:24:36 10° WNW 02:28:01 15° NW 02:31:23 10° N visible
8 Apr - 09:27:17 10° NNW 09:32:29 54° ENE 09:37:09 10° SE daylight
8 Apr - 11:11:59 10° WNW 11:14:50 15° WSW 11:17:32 10° SW daylight
9 Apr - 00:01:18 10° SSW 00:07:34 74° ESE 00:13:47 10° NNE visible
9 Apr - 01:46:38 10° W 01:51:15 21° NW 01:55:45 10° N visible
9 Apr - 08:51:05 10° NNW 08:55:57 35° NE 09:00:20 10° ESE daylight
9 Apr - 10:34:35 10° NW 10:38:43 25° WSW 10:42:32 10° SSW daylight
9 Apr - 23:25:12 10° S 23:31:14 50° ESE 23:37:13 10° NE visible
10 Apr - 01:09:10 10° WSW 01:14:33 29° NW 01:19:50 10° N visible
10 Apr - 08:15:04 10° N 08:19:18 23° NE 08:23:11 10° ESE daylight
10 Apr - 09:57:41 10° NW 10:02:31 41° WSW 10:06:53 10° S daylight
10 Apr - 22:49:26 10° S 22:54:58 33° ESE 23:00:27 10° NE visible
11 Apr - 00:32:02 10° SW 00:37:57 41° NW 00:43:44 10° NNE visible
11 Apr - 07:39:18 10° N 07:42:33 16° NE 07:45:37 10° E daylight
11 Apr - 09:21:04 10° NNW 09:26:14 68° WSW 09:30:52 10° SSE daylight
11 Apr - 22:14:07 10° SSE 22:18:45 22° ESE 22:23:23 10° ENE visible
11 Apr - 23:55:12 10° SW 00:01:25 59° WNW 00:07:31 10° NNE visible
12 Apr - 01:43:37 10° WNW 01:45:42 12° NW 01:47:46 10° NNW visible
12 Apr - 07:04:17 10° NNE 07:05:43 11° NE 07:07:07 10° NE daylight
12 Apr - 08:44:37 10° NNW 08:49:52 74° ENE 08:54:33 10° SSE daylight
12 Apr - 10:31:30 10° W 10:31:56 10° W 10:32:20 10° WSW daylight
12 Apr - 21:39:33 10° SE 21:42:37 14° ESE 21:45:40 10° ENE night (unlit)
12 Apr - 23:18:38 10° SSW 23:24:58 86° WNW 23:31:11 10° NNE visible
13 Apr - 01:05:02 10° W 01:08:52 16° NW 01:12:37 10° N visible
13 Apr - 08:08:19 10° NNW 08:13:23 46° ENE 08:17:55 10° SE daylight
13 Apr - 09:52:34 10° WNW 09:55:51 18° WSW 09:58:57 10° SW daylight
13 Apr - 22:42:20 10° SSW 22:48:35 66° ESE 22:54:42 10° NNE visible
